|
BREEZE-M DEB (TANK) - Orbit
|
Marquette;
17:53:43
| Home | Info | Passes |
|
View from above orbital plane
|
View from above satellite
|
Ground track
|
The orbit data is extracted from the following two-line orbital elements,
1 27821U 03024B 13137.54270593 .00008159 00000-0 10448-2 0 1836
2 27821 049.5819 145.7940 5048801 356.5523 095.1612 05.55951764195885
| Epoch (UTC): | 17 May 2013 13:01:29 |
| Eccentricity: | 0.5048801 |
| inclination: | 49.5819° |
| perigee height: | 286 km |
| apogee height: | 13877 km |
| right ascension of ascending node: | 145.7940° |
| argument of perigee: | 356.5523° |
| revolutions per day: | 5.55951764 |
| mean anomaly at epoch: | 95.1612° |
| orbit number at epoch: | 19588 |
The dashed part of the orbit path shows where the satellite is in the earth's shadow,
|
|